Weather History for New Bedford, MA

Change the Weather History Date:

Saturday, August 31, 2013

  Actual Average Record
Temperature  
Mean Temperature 72 °F -  
Max Temperature 78 °F 79 °F 96 °F (1973)
Min Temperature 68 °F 62 °F 48 °F (1999)
Cooling Degree Days 6    
Growing Degree Days 22 (Base 50)    
Moisture  
Dew Point 69 °F    
Average Humidity 89    
Maximum Humidity 97    
Minimum Humidity 82    
Precipitation  
Precipitation 0.00 in - - ()
Sea Level Pressure  
Sea Level Pressure 29.85 in    
Wind  
Wind Speed 10 mph (SW)    
Max Wind Speed 16 mph    
Max Gust Speed 22 mph    
Visibility 8 miles    
Events      
Averages and records for this station are not official NWS values.
T = Trace of Precipitation, MM = Missing Value Source: NWS Daily Summary

Daily Weather History Graph

Daily Weather History Graph

Search for Another Location

Airport:

Trip Planner

Search our weather history database for the weather conditions in past years. The results will help you decide how hot, cold, wet, or windy it might be!

Date:

Astronomy

Aug. 31, 2013 Rise Set
Actual Time 6:08 AM EDT 7:18 PM EDT
Civil Twilight 5:40 AM EDT 7:46 PM EDT
Nautical Twilight 5:06 AM EDT 8:21 PM EDT
Astronomical Twilight 4:30 AM EDT 8:56 PM EDT
Moon 1:32 AM EDT (8/31) 4:16 PM EDT (8/31)
Length of Visible Light 14h 06m
Length of Day
13h 09m
Waning Crescent, 21% of the Moon is Illuminated
Aug 31
Waning Crescent
Sep 5
New
Sep 12
First Quarter
Sep 19
Full
Sep 26
Last Quarter

Hourly Weather History & Observations

Time (EDT) Temp. Dew Point Humidity Pressure Visibility Wind Dir Wind Speed Gust Speed Precip Events Conditions
12:53 AM 69.1 °F 66.9 °F 93% 29.86 in 7.0 mi SW 5.8 mph - N/A   Mostly Cloudy
1:07 AM 68.0 °F 66.2 °F 94% 29.85 in 6.0 mi SSW 8.1 mph - N/A   Scattered Clouds
1:29 AM 69.8 °F 66.2 °F 88% 29.85 in 7.0 mi SW 9.2 mph - N/A   Mostly Cloudy
1:53 AM 69.1 °F 68.0 °F 96% 29.85 in 6.0 mi SW 6.9 mph - N/A   Overcast
2:53 AM 70.0 °F 68.0 °F 93% 29.83 in 6.0 mi SW 10.4 mph - N/A   Overcast
3:53 AM 70.0 °F 69.1 °F 97% 29.84 in 6.0 mi SW 9.2 mph - N/A   Overcast
4:53 AM 71.1 °F 69.1 °F 93% 29.84 in 6.0 mi SW 8.1 mph - N/A   Overcast
5:53 AM 71.1 °F 69.1 °F 93% 29.84 in 6.0 mi SW 8.1 mph - N/A   Overcast
6:53 AM 71.1 °F 69.1 °F 93% 29.84 in 6.0 mi SW 9.2 mph - N/A   Overcast
7:53 AM 71.1 °F 69.1 °F 93% 29.85 in 6.0 mi SW 9.2 mph - N/A   Overcast
8:53 AM 72.0 °F 69.1 °F 91% 29.86 in 6.0 mi SSW 6.9 mph - N/A   Overcast
9:53 AM 73.0 °F 69.1 °F 87% 29.86 in 8.0 mi WSW 6.9 mph - N/A   Overcast
10:53 AM 75.9 °F 70.0 °F 82% 29.85 in 10.0 mi SSW 11.5 mph - N/A   Mostly Cloudy
11:53 AM 75.0 °F 69.1 °F 82% 29.85 in 9.0 mi SW 13.8 mph - N/A   Mostly Cloudy
12:53 PM 75.0 °F 69.1 °F 82% 29.85 in 9.0 mi SW 13.8 mph - N/A   Mostly Cloudy
1:53 PM 75.0 °F 69.1 °F 82% 29.84 in 9.0 mi SW 9.2 mph 17.3 mph N/A   Mostly Cloudy
2:53 PM 75.0 °F 69.1 °F 82% 29.83 in 10.0 mi SW 16.1 mph 21.9 mph N/A   Overcast
3:45 PM 73.4 °F 69.8 °F 88% 29.83 in 10.0 mi SW 12.7 mph 21.9 mph N/A   Overcast
3:53 PM 73.9 °F 69.1 °F 85% 29.84 in 10.0 mi SW 15.0 mph 21.9 mph N/A   Overcast
4:51 PM 73.4 °F 69.8 °F 88% 29.84 in 8.0 mi SW 11.5 mph - N/A   Overcast
4:53 PM 73.0 °F 70.0 °F 90% 29.83 in 8.0 mi SW 11.5 mph - N/A   Overcast
5:53 PM 73.0 °F 70.0 °F 90% 29.83 in 9.0 mi SW 13.8 mph - N/A   Overcast
6:53 PM 73.0 °F 70.0 °F 90% 29.83 in 9.0 mi SW 12.7 mph 17.3 mph N/A   Overcast
7:53 PM 73.0 °F 70.0 °F 90% 29.84 in 10.0 mi SW 8.1 mph - N/A   Overcast
8:53 PM 73.0 °F 70.0 °F 90% 29.84 in 10.0 mi SW 12.7 mph - N/A   Overcast
9:49 PM 73.4 °F 69.8 °F 88% 29.85 in 10.0 mi SW 12.7 mph 19.6 mph N/A   Mostly Cloudy
9:53 PM 73.0 °F 69.1 °F 87% 29.86 in 10.0 mi SW 13.8 mph 19.6 mph N/A   Mostly Cloudy
10:04 PM 73.4 °F 69.8 °F 88% 29.86 in 10.0 mi SW 10.4 mph 18.4 mph N/A   Scattered Clouds
10:23 PM 73.4 °F 69.8 °F 88% 29.86 in 10.0 mi SW 12.7 mph - N/A   Mostly Cloudy
10:53 PM 72.0 °F 69.1 °F 91% 29.85 in 10.0 mi SSW 11.5 mph 20.7 mph N/A   Mostly Cloudy
11:14 PM 71.6 °F 69.8 °F 94% 29.85 in 10.0 mi SW 10.4 mph - N/A   Mostly Cloudy
11:53 PM 73.0 °F 69.1 °F 87% 29.86 in 10.0 mi SW 11.5 mph - N/A   Mostly Cloudy